Palermo, Italy

4:36 AM CEST on September 30, 2016 (GMT +0200)
Punta Raisi

Weather History for LICJ - April, 2014

Change the Weather History Date:

Thursday, April 3, 2014

  Actual Average Record
Temperature  
Mean Temperature 67 °F -  
Max Temperature 80 °F 62 °F 80 °F (2014)
Min Temperature 54 °F 51 °F 48 °F (1997)
Cooling Degree Days 2    
Growing Degree Days 17 (Base 50)    
Moisture  
Dew Point 45 °F    
Average Humidity 55    
Maximum Humidity 88    
Minimum Humidity 7    
Precipitation  
Precipitation 0.00 in - - ()
Sea Level Pressure  
Sea Level Pressure 29.77 in    
Wind  
Wind Speed 7 mph ()    
Max Wind Speed 38 mph    
Max Gust Speed 54 mph    
Visibility 12.0 miles    
Events      
Averages and records for this station are not official NWS values.
T = Trace of Precipitation, MM = Missing Value Source: Averaged Metar Reports

Daily Weather History Graph

Daily Weather History Graph

Search for Another Location

Airport or City:

Trip Planner

Search our weather history database for the weather conditions in past years. The results will help you decide how hot, cold, wet, or windy it might be!

Date:

Astronomy

Apr. 03, 2014 Rise Set
Actual Time 6:50 AM CEST 7:32 PM CEST
Civil Twilight 6:23 AM CEST 7:59 PM CEST
Nautical Twilight 5:51 AM CEST 8:30 PM CEST
Astronomical Twilight 5:19 AM CEST 9:03 PM CEST
Moon 9:08 AM CEST (4/3) 11:33 PM CEST (4/3)
Length of Visible Light 13h 35m
Length of Day
12h 42m
Waxing Crescent, 15% of the Moon is Illuminated
Apr 3
Waxing Crescent
Apr 7
First Quarter
Apr 15
Full
Apr 22
Last Quarter
Apr 29
New

Hourly Weather History & Observations

Time (CEST) Temp. Dew Point Humidity Pressure Visibility Wind Dir Wind Speed Gust Speed Precip Events Conditions
12:20 AM 57.2 °F 50.0 °F 77% 29.95 in - South 2.3 mph - N/A   Clear
12:50 AM 57.2 °F 50.0 °F 77% 29.95 in - NE 3.5 mph - N/A   Clear
1:20 AM 55.4 °F 50.0 °F 82% 29.92 in - ENE 6.9 mph - N/A   Clear
1:50 AM 57.2 °F 51.8 °F 82% 29.92 in - ENE 6.9 mph - N/A   Clear
2:00 AM 56 °F 51 °F 78% 29.95 in 12 mi East 5.8 mph - -  
2:20 AM 57.2 °F 48.2 °F 72% 29.92 in - ENE 3.5 mph - N/A   Clear
2:50 AM 55.4 °F 48.2 °F 77% 29.92 in - South 3.5 mph - N/A   Clear
3:20 AM 57.2 °F 51.8 °F 82% 29.89 in - SW 2.3 mph - N/A   Clear
3:50 AM 55.4 °F 51.8 °F 88% 29.89 in - West 1.2 mph - N/A   Clear
4:20 AM 55.4 °F 51.8 °F 88% 29.86 in - ENE 3.5 mph - N/A   Clear
4:50 AM 55.4 °F 50.0 °F 82% 29.86 in - ENE 5.8 mph - N/A   Clear
5:00 AM 55 °F 49 °F 75% 29.89 in 12 mi Calm Calm - -  
5:20 AM 55.4 °F 48.2 °F 77% 29.86 in - ENE 4.6 mph - N/A   Clear
5:50 AM 57.2 °F 51.8 °F 82% 29.86 in - North 4.6 mph - N/A   Clear
6:20 AM 55.4 °F 48.2 °F 77% 29.86 in - NE 1.2 mph - N/A   Clear
6:50 AM 57.2 °F 48.2 °F 72% 29.86 in - ENE 2.3 mph - N/A   Clear
7:20 AM 57.2 °F 51.8 °F 82% 29.86 in - NNE 3.5 mph - N/A   Clear
7:50 AM 57.2 °F 51.8 °F 82% 29.86 in - ENE 3.5 mph - N/A   Clear
8:00 AM 56 °F 51 °F 78% 29.90 in 12 mi WSW 1.2 mph - -  
8:20 AM 57.2 °F 53.6 °F 88% 29.86 in - NE 6.9 mph - N/A   Clear
9:20 AM 60.8 °F 50.0 °F 68% 29.86 in - ENE 3.5 mph - N/A   Clear
9:50 AM 62.6 °F 51.8 °F 68% 29.86 in - North 1.2 mph - N/A   Clear
10:20 AM 60.8 °F 51.8 °F 72% 29.86 in - NE 6.9 mph - N/A   Clear
10:50 AM 64.4 °F 50.0 °F 59% 29.86 in - NNE 4.6 mph - N/A   Clear
11:00 AM 65 °F 50 °F 48% 29.87 in 12 mi North 2.3 mph - -  
11:20 AM 62.6 °F 51.8 °F 68% 29.83 in - NNE 6.9 mph - N/A   Clear
11:50 AM 64.4 °F 48.2 °F 56% 29.83 in - NE 11.5 mph - N/A   Clear
12:20 PM 66.2 °F 46.4 °F 49% 29.83 in - NE 10.4 mph - N/A   Clear
12:50 PM 64.4 °F 51.8 °F 64% 29.80 in - NNE 10.4 mph - N/A   Clear
1:20 PM 64.4 °F 53.6 °F 68% 29.77 in - NNE 11.5 mph - N/A   Clear
1:50 PM 66.2 °F 50.0 °F 56% 29.74 in - NNE 9.2 mph - N/A   Clear
2:00 PM 66 °F 49 °F 43% 29.78 in 12 mi NE 4.6 mph - -  
2:20 PM 64.4 °F 55.4 °F 73% 29.74 in - North 10.4 mph - N/A   Clear
2:50 PM 66.2 °F 57.2 °F 73% 29.71 in - North 8.1 mph - N/A   Clear
3:20 PM 66.2 °F 55.4 °F 68% 29.71 in - NNW 9.2 mph - N/A   Clear
3:50 PM 68.0 °F 57.2 °F 68% 29.71 in - NNW 6.9 mph - N/A   Clear
4:20 PM 69.8 °F 53.6 °F 56% 29.71 in - NNW 5.8 mph - N/A   Clear
4:50 PM 80.6 °F 39.2 °F 23% 29.68 in - South 12.7 mph 25.3 mph N/A   Clear
5:00 PM 80 °F 40 °F 15% 29.71 in 12 mi North 4.6 mph - -  
5:20 PM 80.6 °F 37.4 °F 21% 29.68 in - South 20.7 mph 35.7 mph N/A   Clear
5:50 PM 78.8 °F 35.6 °F 21% 29.65 in - South 19.6 mph 32.2 mph N/A   Clear
6:20 PM 78.8 °F 35.6 °F 21% 29.65 in - South 17.3 mph 39.1 mph N/A   Clear
6:50 PM 78.8 °F 33.8 °F 20% 29.65 in - South 15.0 mph 33.4 mph N/A   Clear
7:20 PM 77.0 °F 33.8 °F 21% 29.62 in - SE 9.2 mph - N/A   Clear
7:50 PM 78.8 °F 30.2 °F 17% 29.59 in - SSE 20.7 mph 35.7 mph N/A   Clear
8:00 PM 79 °F 30 °F 8% 29.62 in 12 mi NE 8.1 mph - -  
8:20 PM 78.8 °F 30.2 °F 17% 29.56 in - South 27.6 mph 40.3 mph N/A   Clear
9:20 PM 78.8 °F 28.4 °F 16% 29.53 in - South 35.7 mph 51.8 mph N/A   Clear
9:50 PM 80.6 °F 26.6 °F 14% 29.53 in - SSE 38.0 mph 54.1 mph N/A   Clear
10:20 PM 80.6 °F 26.6 °F 14% 29.53 in - SSE 35.7 mph 54.1 mph N/A   Clear
10:50 PM 80.6 °F 28.4 °F 15% 29.53 in - SSE 29.9 mph 47.2 mph N/A   Clear
11:00 PM 80 °F 27 °F 7% 29.55 in 12 mi ESE 31.1 mph - -  
11:20 PM 78.8 °F 28.4 °F 16% 29.56 in - South 18.4 mph 34.5 mph N/A   Clear
11:50 PM 69.8 °F 46.4 °F 43% 29.59 in - WSW 27.6 mph - N/A   Clear